Overview Statistics Trail Chart Weather Telemetry Raw packets
 

This is the latest recevied weather packets stored in our database for station/object JA0BES-13. If no packets are shown the sender has not sent any weather packets the latest 10 day(s).

<< 3 4 5 6 7 8 9 >>
Time Temp. Humidity Pressure Rain* Wind** Luminosity Snow
1788559595 19.44° C 100% 1013 hPa 0 mm - - -
1788558995 19.44° C 100% 1013 hPa 0 mm - - -
1788558395 19.44° C 100% 1012.8 hPa 0 mm - - -
1788557795 18.89° C 100% 1012.6 hPa 0 mm - - -
1788557194 18.89° C 100% 1012.4 hPa 0 mm - - -
1788556626 18.89° C 100% 1012.5 hPa 0 mm - - -
1788555993 18.89° C 100% 1012.3 hPa 0 mm - - -
1788525376 20.56° C 100% 1011.8 hPa 0.76 mm - - -
1788524775 20.56° C 100% 1012.4 hPa 0.51 mm - - -
1788524175 20.56° C 100% 1012.1 hPa 0.51 mm - - -
1788523606 21.11° C 100% 1012.3 hPa 0.51 mm - - -
1788522374 21.11° C 100% 1012.2 hPa 0.25 mm - - -
1788520573 21.11° C 100% 1012 hPa 0.25 mm - - -
1788519972 21.67° C 100% 1011.9 hPa 0.25 mm - - -
1788519372 21.67° C 100% 1011.7 hPa 0.25 mm - - -
1788518772 21.67° C 100% 1011.8 hPa 0.25 mm - - -
1788518172 21.67° C 100% 1011.7 hPa 0.25 mm - - -
1788517571 21.67° C 100% 1011.6 hPa 0.25 mm - - -
1788516971 21.67° C 100% 1011.6 hPa 0.25 mm - - -
1788516385 21.67° C 100% 1011.4 hPa 0.25 mm - - -
1788515770 21.67° C 100% 1011.2 hPa 0.25 mm - - -
1788515170 21.67° C 100% 1011.3 hPa 0.25 mm - - -
1788514569 21.67° C 100% 1011.1 hPa 0.25 mm - - -
1788513969 21.67° C 100% 1011.1 hPa 0.25 mm - - -
1788513369 22.22° C 100% 1010.9 hPa 0.25 mm - - -

* Rain since midnight (hover to see other rain measurements)
** Current wind speed in m/s (hover to see current wind gust speed)